Regional Weather Roundup
Issued by NWS Cleveland, OH

Home | Current Version | Previous Version | Text Only | Print | Product List | Glossary On
Versions: 1 2 3 4 5 6 7 8 9 10 11 12 13 14 15 16 17 18 19 20 21 22 23 24 25 26 27 28 29 30 31 32 33 34 35 36 37 38 39 40 41 42 43 44 45 46 47 48 49 50
000
ASUS41 KCLE 231212
RWRCLE
OHIO REGIONAL WEATHER ROUNDUP
NATIONAL WEATHER SERVICE WILMINGTON, OH
800 AM EDT SUN APR 23 2017

NOTE: "FAIR" INDICATES FEW OR NO CLOUDS BELOW 12,000 FEET WITH NO
SIGNIFICANT WEATHER AND/OR OBSTRUCTIONS TO VISIBILITY.

OHZ001>008-015>018-024>027-034-035-043-044-231300-
   NORTHWEST OHIO

CITY           SKY/WX    TMP DP  RH WIND       PRES   REMARKS
DEFIANCE       FAIR      39  36  89 CALM      30.15R
FINDLAY        FAIR      42  32  67 NE3       30.12R
TOLEDO EXPRESS FAIR      40  36  86 N3        30.15R
TOLEDO EXEC    FAIR      41  36  82 CALM      30.15R
LIMA           FAIR      39  34  82 NE5       30.11R
$$

OHZ009>014-019>023-028>033-038-089-231300-
   NORTHEAST OHIO

CITY           SKY/WX    TMP DP  RH WIND       PRES   REMARKS
CLE-HOPKINS    FAIR      42  35  76 S3        30.16R
CLE-LAKEFRONT  FAIR      44  36  73 CALM      30.13R
CUY CO. ARPT   SUNNY     46  37  71 SE6       30.13R
LORAIN-ELYRIA  FAIR      38  35  89 CALM      30.14R
ASHTABULA      FAIR      39  37  92 CALM      30.15R
AKRON-CANTON   FAIR      42  35  76 NE8       30.12R
WOOSTER        FAIR      42  36  79 NE5       30.13R
MANSFIELD      FAIR      42  35  76 E6        30.12R
YOUNGSTOWN     FAIR      41  35  79 E5        30.13R
$$

OHZ042-051>053-060>062-070>072-077>081-231300-
  SOUTHWEST OHIO

CITY           SKY/WX    TMP DP  RH WIND       PRES   REMARKS
CINC-COVINGTON FAIR      45  36  70 NE16      30.02R
CINC-LUNKEN    FAIR      45  39  79 CALM      30.05R
HAMILTON       FAIR      45  38  76 NE9       30.05S
DAYTON         FAIR      42  35  76 NE8       30.08R
WRIGHT-PAT AFB FAIR      44  37  78 N9        30.07R
DAYTON GENERAL FAIR      44  35  70 NE12      30.04R
WILMINGTON     FAIR      41  37  86 NE14      30.03S
$$

OHZ036-037-039>041-045>050-054>059-063>069-073>076-082>088-231300-
  CENTRAL AND SOUTHEAST OHIO

CITY           SKY/WX    TMP DP  RH WIND       PRES   REMARKS
COLUMBUS       FAIR      45  35  68 E9        30.07S
OSU AIRPORT    FAIR      42  36  79 NE10      30.08R
BOLTON FIELD   FAIR      42  36  79 NE6       30.07S
RICKENBACK AFB FAIR      41  37  86 NE9       30.06S
NEWARK         FAIR      42  35  76 E3        30.08R
MARION         FAIR      39  33  79 CALM      30.12R
LANCASTER      FAIR      45  37  73 NE12      30.06S
ZANESVILLE     FAIR      42  34  73 NE5       30.08R
NEW PHILLY     FAIR      42  36  79 VRB3      30.12R
$$




USA.gov is the U.S. government's official web portal to all federal, state and local government web resources and services.